Find Michibiki Shogoki Kokei-ki

NORAD ID: 49336 Int'l Des: 2021-096 Owner: NUSS/JAXA Country: J operational
HEOGSO

Aktuelle Ansicht

3D-Globus wird geladen...

Über Michibiki Shogoki Kokei-ki

Beschreibung wird geladen...

Nächste Überflüge

Passes for default location (London). Set your location on the main map for personalized predictions.

Höhenverlauf

Loading altitude history...

Zweizeiliger Elementsatz

1 49336U 21096A 26149.67280689 -.00000281 00000-0 00000-0 0 9993
2 49336 37.4258 79.8557 0753309 271.4682 273.0590 1.00262547 16824
Epoch: 29. Mai 2026 • Age: 21 hours

Aktueller Status

Höhe 38088.3 km
Geschwindigkeit 2.91 km/s
Subsatellitenpunkt 26.86°N, 135.77°E
Startdatum 26. Okt. 2021
Alter 4.5 years
Typ other

Technische Details

Klassifizierung Payload
Masse 4020.00 kg
Trockenmasse 1802.00 kg
Gesamtmasse 4020.00 kg
Länge 6.20 m
Durchmesser 2.90 m
Spannweite 25.30 m
Form Box + 2 Pan
Hersteller MELCO
Bus-Typ DS-2000
Phasenstatus In Orbit
Besitzer/Staat NUSS/JAXA/J

Most Searched